#Datum;Uhrzeit;WR;Pac;DaySum;Status;WR;Pac;DaySum;Status;Pdc1;Udc;Temp;WR;Pac;DaySum;Status;Pdc1;Udc;Temp;WR;Pac;DaySum;Status;Pdc1;Udc;Temp;WR;Pac;DaySum;Status;Pdc1;Pdc2;Udc1;Udc2;Temp;WR;Pac;DaySum;Status;Pdc1;Pdc2;Udc1;Udc2;Temp;WR;Pac;DaySum;Status;Pdc1;Udc;Temp;WR;Pac;DaySum;Status;Pdc1;Udc;Temp;WR;Pac;DaySum;Status;Pdc1;Udc;Temp
19.09.19;23:55:00;1;250;6597;0;2;0;30294;0;0;0;0;3;0;19306;0;0;0;0;4;0;28942;0;0;0;0;5;0;65553;0;0;0;0;0;0;6;0;50494;0;0;0;0;0;0;7;0;40986;0;0;0;0;8;0;40494;0;0;0;0;9;0;22155;0;0;0;0
19.09.19;23:50:00;1;251;6576;0;2;0;30294;0;0;0;0;3;0;19306;0;0;0;0;4;0;28942;0;0;0;0;5;0;65553;0;0;0;0;0;0;6;0;50494;0;0;0;0;0;0;7;0;40986;0;0;0;0;8;0;40494;0;0;0;0;9;0;22155;0;0;0;0
19.09.19;23:45:00;1;254;6555;0;2;0;30294;0;0;0;0;3;0;19306;0;0;0;0;4;0;28942;0;0;0;0;5;0;65553;0;0;0;0;0;0;6;0;50494;0;0;0;0;0;0;7;0;40986;0;0;0;0;8;0;40494;0;0;0;0;9;0;22155;0;0;0;0
19.09.19;23:40:00;1;208;6533;0;2;0;30294;0;0;0;0;3;0;19306;0;0;0;0;4;0;28942;0;0;0;0;5;0;65553;0;0;0;0;0;0;6;0;50494;0;0;0;0;0;0;7;0;40986;0;0;0;0;8;0;40494;0;0;0;0;9;0;22155;0;0;0;0
19.09.19;23:35:00;1;270;6516;0;2;0;30294;0;0;0;0;3;0;19306;0;0;0;0;4;0;28942;0;0;0;0;5;0;65553;0;0;0;0;0;0;6;0;50494;0;0;0;0;0;0;7;0;40986;0;0;0;0;8;0;40494;0;0;0;0;9;0;22155;0;0;0;0
19.09.19;23:30:00;1;271;6493;0;2;0;30294;0;0;0;0;3;0;19306;0;0;0;0;4;0;28942;0;0;0;0;5;0;65553;0;0;0;0;0;0;6;0;50494;0;0;0;0;0;0;7;0;40986;0;0;0;0;8;0;40494;0;0;0;0;9;0;22155;0;0;0;0
19.09.19;23:25:00;1;324;6471;0;2;0;30294;0;0;0;0;3;0;19306;0;0;0;0;4;0;28942;0;0;0;0;5;0;65553;0;0;0;0;0;0;6;0;50494;0;0;0;0;0;0;7;0;40986;0;0;0;0;8;0;40494;0;0;0;0;9;0;22155;0;0;0;0
19.09.19;23:20:00;1;294;6443;0;2;0;30294;0;0;0;0;3;0;19306;0;0;0;0;4;0;28942;0;0;0;0;5;0;65553;0;0;0;0;0;0;6;0;50494;0;0;0;0;0;0;7;0;40986;0;0;0;0;8;0;40494;0;0;0;0;9;0;22155;0;0;0;0
19.09.19;23:15:00;1;273;6419;0;2;0;30294;0;0;0;0;3;0;19306;0;0;0;0;4;0;28942;0;0;0;0;5;0;65553;0;0;0;0;0;0;6;0;50494;0;0;0;0;0;0;7;0;40986;0;0;0;0;8;0;40494;0;0;0;0;9;0;22155;0;0;0;0
19.09.19;23:10:00;1;272;6396;0;2;0;30294;0;0;0;0;3;0;19306;0;0;0;0;4;0;28942;0;0;0;0;5;0;65553;0;0;0;0;0;0;6;0;50494;0;0;0;0;0;0;7;0;40986;0;0;0;0;8;0;40494;0;0;0;0;9;0;22155;0;0;0;0
19.09.19;23:05:00;1;288;6373;0;2;0;30294;0;0;0;0;3;0;19306;0;0;0;0;4;0;28942;0;0;0;0;5;0;65553;0;0;0;0;0;0;6;0;50494;0;0;0;0;0;0;7;0;40986;0;0;0;0;8;0;40494;0;0;0;0;9;0;22155;0;0;0;0
19.09.19;23:00:00;1;251;6349;0;2;0;30294;0;0;0;0;3;0;19306;0;0;0;0;4;0;28942;0;0;0;0;5;0;65553;0;0;0;0;0;0;6;0;50494;0;0;0;0;0;0;7;0;40986;0;0;0;0;8;0;40494;0;0;0;0;9;0;22155;0;0;0;0
19.09.19;22:55:00;1;252;6328;0;2;0;30294;0;0;0;0;3;0;19306;0;0;0;0;4;0;28942;0;0;0;0;5;0;65553;2;0;0;0;0;0;6;0;50494;2;0;0;0;0;0;7;0;40986;0;0;0;0;8;0;40494;0;0;0;0;9;0;22155;0;0;0;0
19.09.19;22:50:00;1;313;6307;0;2;0;30294;0;0;0;0;3;0;19306;0;0;0;0;4;0;28942;0;0;0;0;5;0;65553;2;0;0;0;0;0;6;0;50494;2;0;0;0;0;0;7;0;40986;0;0;0;0;8;0;40494;0;0;0;0;9;0;22155;0;0;0;0
19.09.19;22:45:00;1;283;6281;0;2;0;30294;0;0;0;0;3;0;19306;0;0;0;0;4;0;28942;0;0;0;0;5;0;65553;2;0;0;0;0;0;6;0;50494;2;0;0;0;0;0;7;0;40986;0;0;0;0;8;0;40494;0;0;0;0;9;0;22155;0;0;0;0
19.09.19;22:40:00;1;260;6260;0;2;0;30294;0;0;0;0;3;0;19306;0;0;0;0;4;0;28942;0;0;0;0;5;0;65553;2;0;0;0;0;0;6;0;50494;2;0;0;0;0;0;7;0;40986;0;0;0;0;8;0;40494;0;0;0;0;9;0;22155;0;0;0;0
19.09.19;22:35:00;1;260;6238;0;2;0;30294;0;0;0;0;3;0;19306;0;0;0;0;4;0;28942;0;0;0;0;5;0;65553;2;0;0;0;0;0;6;0;50494;2;0;0;0;0;0;7;0;40986;0;0;0;0;8;0;40494;0;0;0;0;9;0;22155;0;0;0;0
19.09.19;22:30:00;1;260;6216;0;2;0;30294;0;0;0;0;3;0;19306;0;0;0;0;4;0;28942;0;0;0;0;5;0;65553;2;0;0;0;0;0;6;0;50494;2;0;0;0;0;0;7;0;40986;0;0;0;0;8;0;40494;0;0;0;0;9;0;22155;0;0;0;0
19.09.19;22:25:00;1;260;6194;0;2;0;30294;0;0;0;0;3;0;19306;0;0;0;0;4;0;28942;0;0;0;0;5;0;65553;2;0;0;0;0;0;6;0;50494;2;0;0;0;0;0;7;0;40986;0;0;0;0;8;0;40494;0;0;0;0;9;0;22155;0;0;0;0
19.09.19;22:20:00;1;260;6173;0;2;0;30294;0;0;0;0;3;0;19306;0;0;0;0;4;0;28942;0;0;0;0;5;0;65553;2;0;0;0;0;0;6;0;50494;2;0;0;0;0;0;7;0;40986;0;0;0;0;8;0;40494;0;0;0;0;9;0;22155;0;0;0;0
19.09.19;22:15:00;1;286;6151;0;2;0;30294;0;0;0;0;3;0;19306;0;0;0;0;4;0;28942;0;0;0;0;5;0;65553;2;0;0;0;0;0;6;0;50494;2;0;0;0;0;0;7;0;40986;0;0;0;0;8;0;40494;0;0;0;0;9;0;22155;0;0;0;0
19.09.19;22:10:00;1;280;6126;0;2;0;30294;0;0;0;0;3;0;19306;0;0;0;0;4;0;28942;0;0;0;0;5;0;65553;2;0;0;0;0;0;6;0;50494;2;0;0;0;0;0;7;0;40986;0;0;0;0;8;0;40494;0;0;0;0;9;0;22155;0;0;0;0
19.09.19;22:05:00;1;306;6102;0;2;0;30294;0;0;0;0;3;0;19306;0;0;0;0;4;0;28942;0;0;0;0;5;0;65553;2;0;0;0;0;0;6;0;50494;2;0;0;0;0;0;7;0;40986;0;0;0;0;8;0;40494;0;0;0;0;9;0;22155;0;0;0;0
19.09.19;22:00:00;1;345;6076;0;2;0;30294;0;0;0;0;3;0;19306;0;0;0;0;4;0;28942;0;0;0;0;5;0;65553;2;0;0;0;0;0;6;0;50494;2;0;0;0;0;0;7;0;40986;0;0;0;0;8;0;40494;0;0;0;0;9;0;22155;0;0;0;0
19.09.19;21:55:00;1;333;6048;0;2;0;30294;0;0;0;0;3;0;19306;0;0;0;0;4;0;28942;0;0;0;0;5;0;65553;2;0;0;0;0;0;6;0;50494;2;0;0;0;0;0;7;0;40986;0;0;0;0;8;0;40494;0;0;0;0;9;0;22155;0;0;0;0
19.09.19;21:50:00;1;287;6020;0;2;0;30294;0;0;0;0;3;0;19306;0;0;0;0;4;0;28942;0;0;0;0;5;0;65553;2;0;0;0;0;0;6;0;50494;2;0;0;0;0;0;7;0;40986;0;0;0;0;8;0;40494;0;0;0;0;9;0;22155;0;0;0;0
19.09.19;21:45:00;1;233;5995;0;2;0;30294;0;0;0;0;3;0;19306;0;0;0;0;4;0;28942;0;0;0;0;5;0;65553;2;0;0;0;0;0;6;0;50494;2;0;0;0;0;0;7;0;40986;0;0;0;0;8;0;40494;0;0;0;0;9;0;22155;0;0;0;0
19.09.19;21:40:00;1;277;5976;0;2;0;30294;0;0;0;0;3;0;19306;0;0;0;0;4;0;28942;0;0;0;0;5;0;65553;2;0;0;0;0;0;6;0;50494;0;0;0;0;0;0;7;0;40986;0;0;0;0;8;0;40494;0;0;0;0;9;0;22155;0;0;0;0
19.09.19;21:35:00;1;454;5951;0;2;0;30294;0;0;0;0;3;0;19306;0;0;0;0;4;0;28942;0;0;0;0;5;0;65553;2;0;0;0;0;0;6;0;50494;2;0;0;0;0;0;7;0;40986;0;0;0;0;8;0;40494;0;0;0;0;9;0;22155;0;0;0;0
19.09.19;21:30:00;1;241;5916;0;2;0;30294;0;0;0;0;3;0;19306;0;0;0;0;4;0;28942;0;0;0;0;5;0;65553;2;0;0;0;0;0;6;0;50494;2;0;0;0;0;0;7;0;40986;0;0;0;0;8;0;40494;0;0;0;0;9;0;22155;0;0;0;0
19.09.19;21:25:00;1;293;5895;0;2;0;30294;0;0;0;0;3;0;19306;0;0;0;0;4;0;28942;0;0;0;0;5;0;65553;2;0;0;0;0;0;6;0;50494;2;0;0;0;0;0;7;0;40986;0;0;0;0;8;0;40494;0;0;0;0;9;0;22155;0;0;0;0
19.09.19;21:20:00;1;293;5871;0;2;0;30294;0;0;0;0;3;0;19306;0;0;0;0;4;0;28942;0;0;0;0;5;0;65553;2;0;0;0;0;0;6;0;50494;2;0;0;0;0;0;7;0;40986;0;0;0;0;8;0;40494;0;0;0;0;9;0;22155;0;0;0;0
19.09.19;21:15:00;1;294;5846;0;2;0;30294;0;0;0;0;3;0;19306;0;0;0;0;4;0;28942;0;0;0;0;5;0;65553;2;0;0;0;0;0;6;0;50494;2;0;0;0;0;0;7;0;40986;0;0;0;0;8;0;40494;0;0;0;0;9;0;22155;0;0;0;0
19.09.19;21:10:00;1;330;5822;0;2;0;30294;0;0;0;0;3;0;19306;0;0;0;0;4;0;28942;0;0;0;0;5;0;65553;2;0;0;0;0;0;6;0;50494;2;0;0;0;0;0;7;0;40986;0;0;0;0;8;0;40494;0;0;0;0;9;0;22155;0;0;0;0
19.09.19;21:05:00;1;347;5794;0;2;0;30294;0;0;0;0;3;0;19306;0;0;0;0;4;0;28942;0;0;0;0;5;0;65553;2;0;0;0;0;0;6;0;50494;2;0;0;0;0;0;7;0;40986;0;0;0;0;8;0;40494;0;0;0;0;9;0;22155;0;0;0;0
19.09.19;21:00:00;1;392;5764;0;2;0;30294;0;0;0;0;3;0;19306;0;0;0;0;4;0;28942;0;0;0;0;5;0;65553;2;0;0;0;0;0;6;0;50494;2;0;0;0;0;0;7;0;40986;0;0;0;0;8;0;40494;0;0;0;0;9;0;22155;0;0;0;0
19.09.19;20:55:00;1;324;5731;0;2;0;30294;0;0;0;0;3;0;19306;0;0;0;0;4;0;28942;0;0;0;0;5;0;65553;2;0;0;0;0;0;6;0;50494;2;0;0;0;0;0;7;0;40986;0;0;0;0;8;0;40494;0;0;0;0;9;0;22155;0;0;0;0
19.09.19;20:50:00;1;231;5705;0;2;0;30294;0;0;0;0;3;0;19306;0;0;0;0;4;0;28942;0;0;0;0;5;0;65553;2;0;0;0;0;0;6;0;50494;2;0;0;0;0;0;7;0;40986;0;0;0;0;8;0;40494;0;0;0;0;9;0;22155;0;0;0;0
19.09.19;20:45:00;1;234;5685;0;2;0;30294;0;0;0;0;3;0;19306;0;0;0;0;4;0;28942;0;0;0;0;5;0;65553;2;0;0;0;0;0;6;0;50494;2;0;0;0;0;0;7;0;40986;0;0;0;0;8;0;40494;0;0;0;0;9;0;22155;0;0;0;0
19.09.19;20:40:00;1;235;5666;0;2;0;30294;0;0;0;0;3;0;19306;0;0;0;0;4;0;28942;0;0;0;0;5;0;65553;2;0;0;0;0;0;6;0;50494;2;0;0;0;0;0;7;0;40986;0;0;0;0;8;0;40494;0;0;0;0;9;0;22155;0;0;0;0
19.09.19;20:35:00;1;233;5646;0;2;0;30294;0;0;0;0;3;0;19306;0;0;0;0;4;0;28942;0;0;0;0;5;0;65553;2;0;0;0;0;0;6;0;50494;2;0;0;0;0;0;7;0;40986;0;0;0;0;8;0;40494;0;0;0;0;9;0;22155;0;0;0;0
19.09.19;20:30:00;1;239;5626;0;2;0;30294;0;0;0;0;3;0;19306;0;0;0;0;4;0;28942;0;0;0;0;5;0;65553;2;0;0;0;0;0;6;0;50494;2;0;0;0;0;0;7;0;40986;0;0;0;0;8;0;40494;0;0;0;0;9;0;22155;0;0;0;0
19.09.19;20:25:00;1;307;5606;0;2;0;30294;0;0;0;0;3;0;19306;0;0;0;0;4;0;28942;0;0;0;0;5;0;65553;2;0;0;0;0;0;6;0;50494;2;0;0;0;0;0;7;0;40986;0;0;0;0;8;0;40494;0;0;0;0;9;0;22155;0;0;0;0
19.09.19;20:20:00;1;298;5580;0;2;0;30294;0;0;0;0;3;0;19306;0;0;0;0;4;0;28942;0;0;0;0;5;0;65553;2;0;0;0;0;0;6;0;50494;2;0;0;0;0;0;7;0;40986;0;0;0;0;8;0;40494;0;0;0;0;9;0;22155;0;0;0;0
19.09.19;20:15:00;1;334;5557;0;2;0;30294;0;0;0;0;3;0;19306;0;0;0;0;4;0;28942;0;0;0;0;5;0;65553;2;0;0;0;0;0;6;0;50494;2;0;0;0;0;0;7;0;40986;0;0;0;0;8;0;40494;0;0;0;0;9;0;22155;0;0;0;0
19.09.19;20:10:00;1;391;5527;0;2;0;30294;0;0;0;0;3;0;19306;0;0;0;0;4;0;28942;0;0;0;0;5;0;65553;2;0;0;0;0;0;6;0;50494;2;0;0;0;0;0;7;0;40986;0;0;0;0;8;0;40494;0;0;0;0;9;0;22155;0;0;0;0
19.09.19;20:05:00;1;295;5495;0;2;0;30294;0;0;0;0;3;0;19306;0;0;0;0;4;0;28942;0;0;0;0;5;0;65553;2;0;0;0;0;0;6;0;50494;2;0;0;0;0;0;7;0;40986;0;0;0;0;8;0;40494;0;0;0;0;9;0;22155;0;0;0;0
19.09.19;20:00:00;1;292;5470;0;2;0;30294;0;0;0;0;3;0;19306;0;0;0;0;4;0;28942;0;0;0;0;5;0;65553;2;0;0;0;0;0;6;0;50494;2;0;0;0;0;0;7;0;40986;0;0;0;0;8;0;40494;0;0;0;0;9;0;22155;0;0;0;0
19.09.19;19:55:00;1;252;5446;0;2;0;30294;0;0;0;0;3;0;19306;0;0;0;0;4;0;28942;0;0;0;0;5;0;65553;2;0;0;0;0;0;6;0;50494;2;0;0;0;0;0;7;0;40986;0;0;0;0;8;0;40494;0;0;0;0;9;0;22155;0;0;0;0
19.09.19;19:50:00;1;275;5424;0;2;0;30294;0;0;0;0;3;0;19306;0;0;0;0;4;0;28942;0;0;0;0;5;0;65553;2;0;0;0;0;0;6;0;50494;2;0;0;0;0;0;7;0;40986;0;0;0;0;8;0;40494;0;0;0;0;9;0;22155;0;0;0;0
19.09.19;19:45:00;1;202;5400;0;2;0;30294;0;0;0;0;3;0;19306;0;0;0;0;4;0;28942;0;0;0;0;5;0;65553;2;0;0;0;0;0;6;0;50494;2;0;0;0;0;0;7;0;40986;0;0;0;0;8;0;40494;0;0;0;0;9;0;22155;0;0;0;0
19.09.19;19:40:00;1;202;5384;0;2;0;30294;0;0;85;9;3;0;19306;0;0;230;23;4;0;28942;0;0;0;0;5;0;65553;2;0;0;0;0;0;6;0;50494;2;0;0;0;0;0;7;0;40986;0;0;0;0;8;0;40494;0;0;0;0;9;0;22155;0;0;0;0
19.09.19;19:35:00;1;204;5367;0;2;0;30294;6;0;300;27;3;0;19306;6;0;352;28;4;0;28942;0;0;57;23;5;0;65553;2;0;0;0;0;0;6;0;50494;2;0;0;0;0;0;7;0;40986;0;0;0;0;8;0;40494;0;0;0;0;9;0;22155;0;0;0;0
19.09.19;19:30:00;1;250;5349;0;2;0;30294;6;0;347;28;3;0;19306;6;4;404;29;4;0;28942;1;0;126;29;5;0;65553;2;0;0;196;195;21;6;0;50494;0;6;0;100;180;20;7;0;40986;0;0;157;16;8;0;40494;0;0;154;16;9;0;22155;0;0;159;13
19.09.19;19:25:00;1;261;5329;0;2;0;30294;6;0;354;28;3;0;19306;6;2;429;29;4;0;28942;1;0;146;29;5;0;65553;26;0;0;361;360;36;6;0;50494;23;10;0;180;466;34;7;0;40986;6;0;293;28;8;0;40494;6;0;292;28;9;0;22155;6;0;305;24
19.09.19;19:20:00;1;286;5307;0;2;0;30294;6;0;369;29;3;0;19306;6;0;471;30;4;0;28942;1;0;170;30;5;0;65553;23;0;0;385;504;37;6;0;50494;23;4;4;461;237;35;7;0;40986;6;0;333;29;8;0;40494;6;0;330;28;9;0;22155;6;0;338;24
19.09.19;19:15:00;1;358;5283;0;2;0;30294;6;0;393;30;3;2;19306;4;4;475;30;4;0;28942;1;0;201;31;5;5;65553;1;0;0;401;626;37;6;0;50494;23;7;2;256;477;35;7;0;40986;6;0;325;23;8;0;40494;6;0;325;23;9;0;22155;6;0;420;24
19.09.19;19:10:00;1;320;5253;0;2;36;30294;6;63;371;31;3;7;19306;3;20;480;31;4;7;28942;3;7;200;31;5;61;65553;1;0;7;383;609;38;6;8;50494;23;9;5;479;501;36;7;0;40986;3;2;350;24;8;1;40494;4;9;236;17;9;0;22155;6;0;388;20
19.09.19;19:05:00;1;309;5226;0;2;89;30291;4;124;356;32;3;11;19305;6;20;536;31;4;29;28942;3;30;198;32;5;116;65547;4;12;25;375;596;38;6;58;50493;4;49;24;448;224;37;7;0;40986;6;0;291;18;8;0;40493;0;0;0;0;9;0;22155;3;4;401;20
19.09.19;19:00:00;1;284;5200;0;2;165;30284;4;206;380;33;3;75;19304;4;131;486;32;4;78;28939;3;82;202;32;5;172;65537;4;44;52;375;596;38;6;86;50488;4;57;28;448;224;37;7;63;40986;4;94;386;31;8;36;40493;4;64;271;20;9;5;22155;6;8;531;26
19.09.19;18:55:00;1;202;5176;0;2;250;30270;4;295;363;34;3;140;19297;4;176;396;33;4;158;28932;5;164;223;33;5;220;65522;4;77;79;375;596;39;6;112;50480;4;66;35;448;224;37;7;99;40981;4;130;398;31;8;85;40489;4;127;419;31;9;8;22155;6;13;537;26
19.09.19;18:50:00;1;202;5160;0;2;362;30249;4;408;355;34;3;210;19286;4;250;398;33;4;241;28919;5;250;216;33;5;264;65503;4;95;94;375;596;39;6;132;50471;4;87;43;448;224;38;7;123;40972;4;160;403;31;8;111;40482;4;144;375;31;9;29;22154;6;44;342;21
19.09.19;18:45:00;1;202;5143;0;2;509;30220;4;561;353;35;3;297;19269;4;341;411;34;4;369;28900;5;384;231;34;5;313;65481;4;122;113;375;596;39;6;154;50460;4;104;54;448;224;38;7;131;40962;4;160;322;25;8;150;40473;4;181;376;31;9;72;22151;4;99;456;27
19.09.19;18:40:00;1;257;5126;0;2;692;30178;4;748;353;36;3;399;19244;4;445;420;34;4;495;28869;5;515;233;35;5;342;65455;4;139;133;375;596;39;6;167;50447;4;105;54;448;223;38;7;183;40949;4;226;422;32;8;136;40460;4;175;338;25;9;31;22141;0;44;183;11
19.09.19;18:35:00;1;233;5104;0;2;774;30121;4;835;360;37;3;442;19211;4;492;420;35;4;574;28829;5;598;236;35;5;360;65426;4;150;139;375;596;39;6;174;50433;4;105;53;448;224;38;7;196;40934;4;243;438;32;8;191;40446;4;233;457;32;9;77;22139;4;112;470;28
19.09.19;18:30:00;1;203;5085;0;2;807;30056;4;868;353;38;3;463;19174;4;512;417;35;4;604;28781;5;629;234;36;5;407;65396;4;169;158;380;596;40;6;203;50418;4;156;90;448;243;38;7;225;40917;4;267;439;33;8;216;40430;4;258;430;33;9;86;22132;4;121;475;29
19.09.19;18:25:00;1;203;5068;0;2;1047;29990;4;1118;361;39;3;599;19136;4;652;415;36;4;803;28731;5;836;241;36;5;498;65362;4;219;194;399;611;40;6;309;50401;4;160;171;448;449;38;7;146;40899;4;169;238;20;8;105;40409;0;121;143;13;9;106;22125;4;139;493;29
19.09.19;18:20:00;1;243;5051;0;2;1244;29902;4;1328;374;40;3;707;19086;4;765;414;36;4;957;28663;5;996;241;37;5;617;65319;4;282;246;404;612;40;6;446;50374;4;203;235;524;550;38;7;383;40879;4;421;349;34;8;576;40391;4;627;387;34;9;123;22117;4;159;501;30
19.09.19;18:15:00;1;244;5031;0;2;1414;29800;4;1504;366;41;3;793;19028;4;857;422;37;4;1100;28585;5;1145;240;37;5;754;65268;4;350;305;412;648;40;6;570;50336;4;284;294;578;563;38;7;369;40848;4;395;210;20;8;613;40330;0;657;344;27;9;114;22106;4;143;409;24
19.09.19;18:10:00;1;245;5010;0;2;1588;29682;4;1686;385;42;3;901;18962;4;967;431;37;4;1259;28494;5;1311;241;38;5;889;65204;4;409;375;383;639;41;6;712;50288;4;374;379;583;560;39;7;953;40801;4;1015;355;35;8;930;40282;4;988;363;34;9;144;22094;4;179;452;25
19.09.19;18:05:00;1;275;4990;0;2;1325;29550;4;1414;391;43;3;748;18887;4;807;414;37;4;1090;28389;5;1135;241;38;5;939;65129;4;442;390;398;659;41;6;728;50227;4;379;386;581;551;39;7;1077;40721;4;1143;401;35;8;1061;40204;4;1122;389;35;9;192;22080;4;229;530;32
19.09.19;18:00:00;1;248;4967;0;2;1182;29440;4;1265;373;44;3;643;18824;4;700;421;38;4;921;28298;5;960;235;39;5;948;65053;4;451;389;399;642;41;6;718;50169;4;354;371;577;552;39;7;989;40632;4;1057;442;36;8;957;40118;4;1018;437;36;9;31;22064;4;35;81;5
19.09.19;17:55:00;1;232;4947;0;2;1747;29343;4;1856;382;46;3;906;18772;4;972;420;38;4;1331;28223;5;1387;234;40;5;1264;64973;4;614;524;408;656;41;6;970;50108;4;480;486;581;565;39;7;1594;40551;4;1691;466;36;8;1529;40040;4;1617;457;36;9;145;22044;0;166;216;20
19.09.19;17:50:00;1;248;4927;0;2;2154;29196;4;2278;376;47;3;1145;18696;4;1220;422;39;4;1728;28112;5;1800;236;40;5;1651;64860;4;834;694;411;670;42;6;1274;50021;4;656;651;590;563;40;7;2155;40419;4;2272;467;37;8;2066;39910;4;2176;447;37;9;575;22029;4;626;371;34
19.09.19;17:45:00;1;249;4906;0;2;2337;29017;4;2473;389;47;3;1219;18601;4;1295;415;39;4;1847;27968;5;1924;235;41;5;1875;64721;4;948;796;410;670;42;6;1437;49915;4;724;727;587;568;40;7;2296;40240;4;2413;466;37;8;2214;39738;4;2327;460;37;9;863;21982;4;919;381;35
19.09.19;17:40:00;1;250;4885;0;2;2440;28823;4;2588;387;48;3;1256;18499;4;1335;425;40;4;1949;27814;5;2030;235;41;5;2066;64564;4;1078;879;413;670;42;6;1597;49794;4;829;810;589;564;40;7;2449;40049;4;2579;468;38;8;1937;39556;4;2037;370;30;9;1027;21911;4;1090;404;36
19.09.19;17:35:00;1;250;4864;0;2;2523;28620;4;2671;387;49;3;1320;18395;4;1398;425;40;4;2022;27653;5;2106;235;42;5;2246;64391;4;1160;963;415;668;43;6;1727;49660;4;850;844;587;565;40;7;2547;39848;4;2686;467;38;8;2032;39294;0;2136;367;30;9;1146;21828;4;1218;430;37
19.09.19;17:30:00;1;305;4843;0;2;2652;28411;4;2808;391;49;3;1371;18285;4;1451;410;40;4;2120;27485;5;2209;235;42;5;2479;64202;4;1288;1065;417;670;43;6;1917;49515;4;1001;982;587;566;40;7;2722;39634;4;2863;463;38;8;2693;39145;4;2832;459;38;9;1287;21731;4;1367;450;38
19.09.19;17:25:00;1;335;4816;0;2;2742;28189;4;2899;382;50;3;1431;18171;4;1514;418;41;4;2182;27308;5;2273;233;42;5;2654;63997;4;1403;1145;413;669;43;6;2033;49356;4;1065;1033;586;564;40;7;2272;39345;0;2391;369;31;8;2718;38922;4;2862;462;39;9;1360;21625;4;1446;477;39
19.09.19;17:20:00;1;307;4787;0;2;2849;27962;4;3012;388;51;3;1509;18052;4;1597;423;41;4;2291;27126;5;2387;231;43;5;2906;63773;4;1536;1257;409;666;44;6;2241;49184;4;1154;1150;588;561;41;7;2993;39172;4;3144;456;39;8;1966;38695;4;2066;304;26;9;1555;21511;4;1652;490;39
19.09.19;17:15:00;1;332;4761;0;2;2970;27723;4;3142;388;51;3;1605;17926;4;1698;431;42;4;2393;26935;5;2493;231;43;5;3129;63530;4;1653;1360;410;664;44;6;2405;48996;4;1267;1240;584;566;41;7;3095;38924;4;3259;458;40;8;2445;38448;4;2568;362;31;9;1620;21382;4;1725;492;40
19.09.19;17:10:00;1;304;4733;0;2;3199;27475;4;3382;382;51;3;1734;17792;4;1835;434;42;4;2625;26735;5;2734;232;43;5;3495;63265;4;1871;1523;409;666;44;6;2693;48792;4;1376;1349;585;564;41;7;2860;38663;4;3007;386;33;8;2833;38195;4;2975;379;33;9;927;21247;4;985;254;20
19.09.19;17:05:00;1;297;4707;0;2;2438;27209;4;2584;380;51;3;1292;17648;4;1375;432;42;4;1958;26516;5;2039;230;43;5;2762;62973;4;1455;1200;410;658;45;6;2218;48567;4;1134;1103;576;563;41;7;2749;38380;4;2891;450;40;8;2728;37911;4;2877;452;40;9;1471;21094;4;1571;503;40
19.09.19;17:00:00;1;324;4682;0;2;3060;27000;4;3244;394;52;3;1706;17538;4;1801;431;43;4;2568;26350;5;2675;230;44;5;3625;62728;4;1923;1588;406;658;45;6;2809;48380;4;1458;1431;579;566;41;7;3379;38144;4;3556;450;41;8;3314;37679;4;3488;453;41;9;1517;20969;4;1612;413;34
19.09.19;16:55:00;1;296;4655;0;2;2943;26744;4;3122;394;53;3;1661;17395;4;1758;436;43;4;2505;26135;5;2609;228;44;5;3702;62430;4;1969;1619;404;659;45;6;2807;48149;4;1439;1406;578;557;42;7;2580;37783;0;2711;360;32;8;3161;37406;4;3327;454;41;9;1738;20821;4;1850;498;42
19.09.19;16:50:00;1;340;4631;0;2;3357;26501;4;3547;382;54;3;1897;17258;4;1999;435;44;4;2873;25928;5;2992;229;45;5;4332;62117;4;2330;1901;408;647;46;6;3385;47910;4;1739;1703;577;561;42;7;1940;37591;4;2038;227;20;8;3860;37134;4;4051;449;41;9;2121;20671;4;2248;500;42
19.09.19;16:45:00;1;258;4605;0;2;3315;26221;4;3506;375;54;3;1812;17100;4;1914;434;44;4;2772;25689;5;2887;227;46;5;4270;61765;4;2281;1882;404;656;46;6;3342;47636;4;1700;1659;580;557;42;7;3697;37266;4;3892;450;42;8;3618;36818;4;3806;457;42;9;2011;20497;4;2132;504;43
19.09.19;16:40:00;1;258;4583;0;2;3493;25949;4;3694;379;55;3;1941;16952;4;2048;435;44;4;2925;25463;5;3047;226;47;5;4569;61411;4;2460;2012;401;652;46;6;3523;47362;4;1815;1771;581;556;42;7;3821;36964;4;4019;452;42;8;3779;36521;4;3972;442;42;9;2058;20333;4;2182;492;43
19.09.19;16:35:00;1;258;4562;0;2;3747;25661;4;3959;372;55;3;2040;16791;4;2150;428;44;4;3142;25223;5;3272;226;47;5;5008;61026;4;2700;2212;404;656;46;6;3875;47065;4;2015;1969;579;557;42;7;4164;36651;4;4375;447;42;8;4077;36212;4;4283;447;42;9;2228;20164;4;2355;495;44
19.09.19;16:30:00;1;293;4540;0;2;3831;25352;4;4048;375;55;3;2103;16622;4;2216;412;45;4;3210;24962;5;3343;223;48;5;5222;60612;4;2820;2304;403;645;47;6;4056;46743;4;2080;2032;568;554;42;7;4331;36311;4;4583;446;43;8;4327;35878;4;4543;443;43;9;1195;19983;4;1265;245;22
19.09.19;16:25:00;1;300;4516;0;2;3923;25032;4;4147;373;56;3;2221;16447;4;2338;426;45;4;3361;24696;5;3500;219;48;5;5549;60170;4;3025;2450;399;641;47;6;4253;46403;4;2192;2113;564;548;43;7;3596;35945;4;3778;354;34;8;1788;35512;4;1878;174;17;9;1462;19778;4;1548;297;26
19.09.19;16:20:00;1;302;4491;0;2;3866;24705;4;4080;369;56;3;2250;16263;4;2370;419;45;4;3305;24415;5;3443;221;48;5;5523;59707;4;2919;2410;396;634;47;6;4282;46047;4;2199;2140;561;543;43;7;3557;35569;4;3730;352;34;8;2687;34964;0;2824;265;25;9;1464;19573;4;1547;286;26
19.09.19;16:15:00;1;372;4465;0;2;3958;24385;4;4179;365;56;3;2353;16077;4;2458;421;46;4;3406;24142;5;3548;220;48;5;5753;59242;4;3135;2551;396;633;47;6;4405;45690;4;2286;2216;560;545;43;7;2746;35199;4;2885;258;25;8;4563;34766;4;4790;428;43;9;2527;19373;4;2680;490;45
19.09.19;16:10:00;1;259;4434;0;2;3995;24055;4;4220;365;56;3;2357;15881;4;2480;426;46;4;3454;23859;5;3597;219;48;5;5935;58761;4;3236;2633;396;636;47;6;4543;45321;4;2336;2262;560;542;43;7;4670;34818;4;4899;437;43;8;3860;34386;4;4056;366;35;9;2567;19166;4;2717;485;45
19.09.19;16:05:00;1;263;4412;0;2;3892;23724;4;4115;368;56;3;2295;15685;4;2419;428;46;4;3388;23571;5;3529;220;48;5;5848;58266;4;3182;2595;394;633;47;6;4477;44942;4;2303;2234;561;544;43;7;2769;34430;4;2908;260;25;8;4539;34000;4;4767;435;43;9;2522;18948;4;2670;483;45
19.09.19;16:00:00;1;262;4390;0;2;4100;23399;4;4329;370;56;3;2418;15493;4;2542;440;46;4;3593;23288;5;3743;223;47;5;6242;57777;4;3405;2776;397;632;47;6;4787;44566;4;2472;2392;572;555;43;7;4714;34048;4;4948;430;43;8;4635;33623;4;4879;436;43;9;1691;18739;4;1788;327;30
19.09.19;15:55:00;1;262;4368;0;2;4224;23055;4;4461;374;57;3;2532;15291;4;2665;441;47;4;3664;22988;5;3817;222;47;5;6528;57256;4;3557;2895;395;638;47;6;5009;44165;4;2603;2520;565;551;43;7;4933;33654;4;5174;440;43;8;3920;33150;0;4121;346;34;9;2746;18529;4;2904;490;45
19.09.19;15:50:00;1;261;4346;0;2;4187;22704;4;4423;375;56;3;2529;15080;4;2661;443;47;4;3624;22683;5;3775;221;47;5;6494;56718;4;3540;2885;395;636;47;6;5015;43747;4;2587;2505;567;555;43;7;4885;33245;4;5130;438;43;8;4838;32852;4;5082;436;44;9;2234;18298;4;2364;412;37
19.09.19;15:45:00;1;260;4325;0;2;3807;22356;4;4021;371;56;3;2282;14870;4;2407;449;47;4;3286;22381;5;3422;222;47;5;5957;56179;4;3247;2638;396;631;48;6;4646;43327;4;2388;2342;561;552;43;7;4470;32838;4;4695;434;44;8;4430;32452;4;4661;446;44;9;2470;18079;4;2613;492;45
19.09.19;15:40:00;1;314;4303;0;2;3619;22033;4;3829;374;56;3;2187;14676;4;2305;449;47;4;3188;22103;5;3321;220;47;5;5861;55680;4;3195;2605;392;628;48;6;4549;42938;4;2338;2281;556;546;43;7;4401;32464;4;4625;433;44;8;4347;32079;4;4565;433;44;9;2387;17870;4;2526;492;45
19.09.19;15:35:00;1;319;4276;0;2;4512;21730;4;4762;366;57;3;2747;14494;4;2886;447;47;4;3994;21836;5;4161;221;48;5;7366;55182;4;4046;3284;393;633;47;6;5592;42556;4;2898;2780;550;545;43;7;5414;32092;4;5688;426;44;8;5367;31711;4;5636;431;44;9;2987;17671;4;3152;476;46
19.09.19;15:30:00;1;363;4249;0;2;4331;21355;4;4576;365;57;3;2665;14265;4;2797;434;47;4;3833;21504;5;3993;219;48;5;7147;54570;4;3902;3197;391;627;47;6;5544;42086;4;2870;2776;557;546;43;7;5224;31643;4;5490;429;44;8;5169;31267;4;5433;422;44;9;2862;17421;4;3022;472;46
19.09.19;15:25:00;1;413;4218;0;2;4397;20993;4;4642;366;57;3;2703;14043;4;2841;450;48;4;3873;21185;5;4035;218;49;5;7316;53974;4;4013;3269;388;632;47;6;5693;41627;4;2941;2848;560;548;43;7;4264;31207;4;4481;346;35;8;5301;30835;4;5566;431;44;9;2936;17182;4;3103;480;46
19.09.19;15:20:00;1;415;4184;0;2;4493;20627;4;4733;362;57;3;2760;13818;4;2900;452;48;4;3931;20862;5;4095;216;50;5;7493;53366;4;4108;3350;389;628;47;6;5886;41153;4;3041;2934;555;543;43;7;5439;30763;4;5722;434;44;8;5412;30394;4;5685;429;44;9;3016;16939;4;3185;478;46
19.09.19;15:15:00;1;379;4149;0;2;4382;20253;4;4628;366;57;3;2695;13588;4;2834;447;48;4;3825;20534;5;3984;215;50;5;7351;52741;4;4031;3289;387;628;47;6;5722;40664;4;2964;2903;550;538;43;7;5300;30310;4;5571;426;44;8;5300;29942;4;5558;423;44;9;2385;16688;4;2519;387;36
19.09.19;15:10:00;1;371;4117;0;2;4434;19887;4;4675;364;57;3;2713;13363;4;2852;451;48;4;3866;20216;5;4026;217;50;5;7474;52125;4;4111;3344;384;628;47;6;5836;40184;4;3006;2931;549;534;43;7;5458;29868;4;5731;432;44;8;5439;29501;4;5711;430;44;9;2040;16351;0;2155;328;30
19.09.19;15:05:00;1;382;4086;0;2;4654;19519;4;4914;373;56;3;2864;13137;4;3013;462;48;4;4073;19894;5;4242;219;49;5;7797;51498;4;4283;3503;386;630;47;6;6130;39695;4;3133;3104;567;550;43;7;3340;29414;4;3505;257;26;8;3817;29048;4;4016;425;44;9;896;16077;0;955;286;27